Maastricht, Netherlands

9:16 AM CEST on August 23, 2017 (GMT +0200)
Maastricht-Aachen

Weather History for EHBK - March, 2013

Change the Weather History Date:

Thursday, March 28, 2013

  Actual Average Record
Temperature  
Mean Temperature 34 °F -  
Max Temperature 41 °F 55 °F 69 °F (2003)
Min Temperature 26 °F 39 °F 26 °F (2013)
Degree Days  
Heating Degree Days 32    
Moisture  
Dew Point 24 °F    
Average Humidity 66    
Maximum Humidity 93    
Minimum Humidity 36    
Precipitation  
Precipitation 0.02 in 0.07 in - ()
Sea Level Pressure  
Sea Level Pressure 29.77 in    
Wind  
Wind Speed 6 mph ()    
Max Wind Speed 10 mph    
Max Gust Speed -    
Visibility 6.0 miles    
Events Snow    
Averages and records for this station are not official NWS values.
T = Trace of Precipitation, MM = Missing Value Source: Averaged Metar Reports

Daily Weather History Graph

Daily Weather History Graph

Search for Another Location

Airport or City:

Trip Planner

Search our weather history database for the weather conditions in past years. The results will help you decide how hot, cold, wet, or windy it might be!

Date:

Astronomy

Mar. 28, 2013 Rise Set
Actual Time 6:21 AM CET 7:03 PM CET
Civil Twilight 5:48 AM CET 7:36 PM CET
Nautical Twilight 5:08 AM CET 8:16 PM CET
Astronomical Twilight 4:26 AM CET 8:58 PM CET
Moon 8:51 PM CET (3/28) 6:29 AM CET (3/28)
Length of Visible Light 13h 48m
Length of Day
12h 41m
Full, 99% of the Moon is Illuminated
Mar 28
Full
Apr 3
Last Quarter
Apr 10
New
Apr 18
First Quarter
Apr 25
Full

Hourly Weather History & Observations

Time (CET) Temp. Windchill Dew Point Humidity Pressure Visibility Wind Dir Wind Speed Gust Speed Precip Events Conditions
12:25 AM 33.8 °F 27.0 °F 21.2 °F 60% 29.80 in 6.2 mi East 8.1 mph - N/A   Mostly Cloudy
12:55 AM 33.8 °F 28.6 °F 21.2 °F 60% 29.80 in 6.2 mi East 5.8 mph - N/A   Unknown
1:00 AM 32 °F - 22 °F 54% 29.83 in 10 mi East 6.7 mph - -   Partly Cloudy
1:25 AM 32.0 °F 25.6 °F 21.2 °F 64% 29.80 in 6.2 mi East 6.9 mph - N/A   Partly Cloudy
1:55 AM 30.2 °F 23.4 °F 21.2 °F 69% 29.80 in 6.2 mi East 6.9 mph - N/A   Unknown
2:25 AM 30.2 °F 23.4 °F 21.2 °F 69% 29.80 in 6.2 mi ENE 6.9 mph - N/A   Unknown
2:55 AM 26.6 °F 18.2 °F 21.2 °F 80% 29.80 in 6.2 mi ENE 8.1 mph - N/A   Unknown
3:25 AM 26.6 °F 19.1 °F 21.2 °F 80% 29.77 in 6.2 mi ENE 6.9 mph - N/A   Unknown
3:55 AM 26.6 °F 18.2 °F 21.2 °F 80% 29.77 in 6.2 mi ENE 8.1 mph - N/A   Partly Cloudy
4:00 AM 28 °F - 21 °F 67% 29.81 in 8 mi ENE 6.7 mph - -   Overcast
4:25 AM 28.4 °F 21.2 °F 21.2 °F 74% 29.77 in 6.2 mi ENE 6.9 mph - N/A   Unknown
4:55 AM 28.4 °F 21.2 °F 23.0 °F 80% 29.77 in 6.2 mi ENE 6.9 mph - N/A   Partly Cloudy
5:25 AM 28.4 °F 22.2 °F 23.0 °F 80% 29.77 in 6.2 mi East 5.8 mph - N/A   Unknown
5:55 AM 28.4 °F 23.3 °F 23.0 °F 80% 29.77 in 6.2 mi NE 4.6 mph - N/A   Unknown
6:25 AM 28.4 °F 23.3 °F 23.0 °F 80% 29.77 in 6.2 mi ENE 4.6 mph - N/A   Unknown
6:55 AM 26.6 °F 22.6 °F 23.0 °F 86% 29.77 in 6.2 mi NE 3.5 mph - N/A   Partly Cloudy
7:00 AM 27 °F - 23 °F 78% 29.81 in 7 mi NNE 4.5 mph - -   Partly Cloudy
7:25 AM 28.4 °F 23.3 °F 23.0 °F 80% 29.77 in 6.2 mi NNE 4.6 mph - N/A   Mostly Cloudy
7:55 AM 30.2 °F 25.4 °F 24.8 °F 80% 29.77 in 6.2 mi NE 4.6 mph - N/A   Mostly Cloudy
8:25 AM 32.0 °F 27.5 °F 24.8 °F 75% 29.77 in 6.2 mi NE 4.6 mph - N/A   Mostly Cloudy
8:55 AM 32.0 °F 27.5 °F 24.8 °F 75% 29.77 in 6.2 mi ENE 4.6 mph - N/A   Scattered Clouds
9:25 AM 32.0 °F 28.7 °F 24.8 °F 75% 29.77 in 6.2 mi ENE 3.5 mph - N/A   Partly Cloudy
9:55 AM 33.8 °F 29.6 °F 24.8 °F 70% 29.77 in 6.2 mi NNE 4.6 mph - N/A   Mostly Cloudy
10:00 AM 35 °F - 25 °F 55% 29.81 in 7 mi NNE 4.5 mph - -   Overcast
10:25 AM 35.6 °F 32.8 °F 23.0 °F 60% 29.77 in 6.2 mi NE 3.5 mph - N/A   Mostly Cloudy
10:55 AM 39.2 °F 35.9 °F 23.0 °F 52% 29.77 in 6.2 mi NE 4.6 mph - N/A   Unknown
11:25 AM 39.2 °F 35.9 °F 23.0 °F 52% 29.77 in 6.2 mi NE 4.6 mph - N/A   Partly Cloudy
11:55 AM 39.2 °F 35.0 °F 23.0 °F 52% 29.77 in 6.2 mi ENE 5.8 mph - N/A   Overcast
12:25 PM 39.2 °F 35.0 °F 23.0 °F 52% 29.77 in 6.2 mi NE 5.8 mph - N/A   Overcast
12:55 PM 39.2 °F 33.6 °F 21.2 °F 49% 29.77 in 6.2 mi NNE 8.1 mph - N/A   Mostly Cloudy
1:00 PM 39 °F - 21 °F 36% 29.79 in 9 mi NNE 6.7 mph - -   Partly Cloudy
1:25 PM 39.2 °F 35.0 °F 21.2 °F 49% 29.77 in 6.2 mi ENE 5.8 mph - N/A   Partly Cloudy
1:55 PM 41.0 °F 35.8 °F 23.0 °F 49% 29.74 in 6.2 mi NE 8.1 mph - N/A   Mostly Cloudy
2:25 PM 41.0 °F 38.0 °F 21.2 °F 45% 29.74 in 6.2 mi ENE 4.6 mph - N/A   Partly Cloudy
2:55 PM 41.0 °F 38.0 °F 21.2 °F 45% 29.74 in 6.2 mi NNE 4.6 mph - N/A   Mostly Cloudy
3:25 PM 41.0 °F 38.0 °F 21.2 °F 45% 29.74 in 6.2 mi NNE 4.6 mph - N/A   Scattered Clouds
3:55 PM 41.0 °F 35.8 °F 23.0 °F 49% 29.74 in 6.2 mi NE 8.1 mph - N/A   Mostly Cloudy
4:00 PM 40 °F - 24 °F 40% 29.77 in 8 mi ENE 8.9 mph - -   Scattered Clouds
4:25 PM 39.2 °F 33.0 °F 24.8 °F 56% 29.74 in 6.2 mi ENE 9.2 mph - N/A   Partly Cloudy
4:55 PM 39.2 °F 33.0 °F 24.8 °F 56% 29.74 in 6.2 mi NE 9.2 mph - N/A   Partly Cloudy
5:25 PM 39.2 °F 35.0 °F 24.8 °F 56% 29.74 in 6.2 mi ENE 5.8 mph - N/A   Unknown
5:55 PM 39.2 °F 35.0 °F 24.8 °F 56% 29.74 in 6.2 mi ENE 5.8 mph - N/A   Partly Cloudy
6:25 PM 37.4 °F 32.1 °F 24.8 °F 60% 29.74 in 6.2 mi NE 6.9 mph - N/A   Partly Cloudy
6:55 PM 37.4 °F 34.9 °F 24.8 °F 60% 29.74 in 6.2 mi NE 3.5 mph - N/A   Scattered Clouds
7:00 PM 36 °F - 24 °F 50% 29.79 in 7 mi NE 4.5 mph - -   Partly Cloudy
7:25 PM 35.6 °F 31.7 °F 24.8 °F 65% 29.77 in 6.2 mi NNE 4.6 mph - N/A   Scattered Clouds
7:55 PM 35.6 °F 28.0 °F 26.6 °F 70% 29.77 in 5.6 mi NE 10.4 mph - N/A   Mostly Cloudy
8:25 PM 35.6 °F 28.6 °F 26.6 °F 70% 29.77 in 5.0 mi NNE 9.2 mph - N/A   Partly Cloudy
8:55 PM 35.6 °F 29.9 °F 28.4 °F 75% 29.77 in 4.3 mi NNE 6.9 mph - N/A Snow Light Snow
9:25 PM 33.8 °F 27.7 °F 28.4 °F 81% 29.77 in 1.6 mi NNW 6.9 mph - N/A Snow Light Snow
9:55 PM 33.8 °F - 28.4 °F 81% 29.77 in 3.1 mi Variable 2.3 mph - N/A   Overcast
10:00 PM 34 °F - 29 °F 76% 29.81 in 3 mi NNW 2.2 mph - - Snow Light Snow Showers
10:25 PM 33.8 °F 30.8 °F 30.2 °F 87% 29.77 in 3.1 mi NW 3.5 mph - N/A   Mostly Cloudy
10:55 PM 33.8 °F 27.7 °F 26.6 °F 75% 29.77 in - NNE 6.9 mph - N/A Snow Light Snow
11:25 PM 32.0 °F 25.6 °F 30.2 °F 93% 29.77 in 1.3 mi North 6.9 mph - N/A Snow Light Snow
11:55 PM 30.2 °F 24.3 °F 28.4 °F 93% 29.77 in - North 5.8 mph - N/A Snow Light Snow